AD5L Weather Reports


Display with metric or nautical units.
time (UTC)temp
F
wind
direction
speed
MPH
gust
MPH
rain 1hr
in
rain 24hr
in
rain mn
in
humidity
%
barometer
mb
20260505121328 70 198 3.0 10.0 0.00 0.00 0.00 92 1007.5
20260505120348 70 136 2.0 8.0 0.00 0.00 0.00 92 1007.4
20260505115329 70 124 5.0 11.0 0.00 0.00 0.00 92 1007.1
20260505114341 70 158 6.0 11.0 0.00 0.00 0.00 92 1007.0
20260505113332 71 160 3.0 10.0 0.00 0.00 0.00 91 1007.1
20260505112324 71 160 5.0 9.0 0.00 0.00 0.00 91 1007.1
20260505111334 71 139 3.0 15.0 0.00 0.00 0.00 91 1007.0
20260505110323 71 230 3.0 13.0 0.00 0.00 0.00 91 1007.0
20260505101339 71 188 4.0 7.0 0.00 0.00 0.00 90 1007.6
20260505100330 71 160 4.0 12.0 0.00 0.00 0.00 90 1007.6
20260505095342 71 172 3.0 10.0 0.00 0.00 0.00 91 1007.6
20260505094333 71 146 3.0 11.0 0.00 0.00 0.00 91 1007.6
20260505093345 71 120 3.0 8.0 0.00 0.00 0.00 91 1007.7
20260505092327 71 184 3.0 11.0 0.00 0.00 0.00 90 1007.6
20260505091348 71 237 4.0 11.0 0.00 0.00 0.00 90 1007.7
20260505090330 71 165 6.0 12.0 0.00 0.00 0.00 90 1008.0
20260505085349 71 150 3.0 10.0 0.00 0.00 0.00 90 1007.8
20260505084331 71 131 4.0 12.0 0.00 0.00 0.00 90 1007.9
20260505083323 71 114 5.0 15.0 0.00 0.00 0.00 89 1007.9
20260505082331 71 195 3.0 11.0 0.00 0.00 0.00 89 1008.0
20260505081323 71 168 7.0 16.0 0.00 0.00 0.00 89 1008.2
20260505080333 71 160 6.0 12.0 0.00 0.00 0.00 89 1008.1
20260505075325 71 127 5.0 13.0 0.00 0.00 0.00 89 1008.1
20260505074332 71 203 7.0 14.0 0.00 0.00 0.00 89 1008.3
20260505073322 71 162 5.0 19.0 0.00 0.00 0.00 89 1008.4
20260505072333 71 217 7.0 13.0 0.00 0.00 0.00 89 1008.4
20260505071325 71 148 7.0 15.0 0.00 0.00 0.00 89 1008.6
20260505070335 71 122 5.0 14.0 0.00 0.00 0.00 89 1008.7
20260505065346 71 137 5.0 11.0 0.00 0.00 0.00 89 1008.8
20260505064338 71 184 6.0 16.0 0.00 0.00 0.00 88 1008.9
20260505063349 71 210 7.0 13.0 0.00 0.00 0.00 88 1008.8
20260505062341 72 173 6.0 16.0 0.00 0.00 0.00 88 1008.9
20260505061322 72 202 4.0 13.0 0.00 0.00 0.00 88 1009.0
20260505060332 72 178 6.0 15.0 0.00 0.00 0.00 88 1009.1
20260505055323 72 186 6.0 17.0 0.00 0.00 0.00 88 1009.1
20260505054333 72 179 6.0 16.0 0.00 0.00 0.00 88 1009.1
20260505053324 72 170 5.0 15.0 0.00 0.00 0.00 87 1009.0
20260505052336 72 160 6.0 19.0 0.00 0.00 0.00 87 1008.9
20260505051327 72 169 6.0 15.0 0.00 0.00 0.00 87 1009.1
20260505050337 72 99 8.0 16.0 0.00 0.00 0.00 87 1008.9
20260505041334 73 154 4.0 13.0 0.00 0.00 0.00 85 1009.0
20260505040326 73 150 6.0 12.0 0.00 0.00 0.00 84 1009.0
20260505035337 74 169 3.0 8.0 0.00 0.00 0.00 84 1009.1
20260505034345 74 192 4.0 11.0 0.00 0.00 0.00 83 1009.1
20260505033336 74 112 5.0 10.0 0.00 0.00 0.00 83 1009.1
20260505032343 74 91 3.0 11.0 0.00 0.00 0.00 82 1008.9
20260505031325 75 214 4.0 10.0 0.00 0.00 0.00 82 1008.9
20260505030345 75 165 6.0 12.0 0.00 0.00 0.00 81 1009.0
20260505025327 75 137 4.0 10.0 0.00 0.00 0.00 80 1008.9
20260505024347 75 110 4.0 12.0 0.00 0.00 0.00 78 1008.9
20260505023324 76 129 2.0 8.0 0.00 0.00 0.00 77 1008.9
20260505022334 76 143 3.0 9.0 0.00 0.00 0.00 76 1008.8
20260505021326 76 168 5.0 10.0 0.00 0.00 0.00 75 1008.8
20260505020336 76 150 4.0 11.0 0.00 0.00 0.00 75 1008.6
20260505015327 76 219 4.0 9.0 0.00 0.00 0.00 74 1008.5
20260505014338 76 140 2.0 6.0 0.00 0.00 0.00 74 1008.6
20260505013330 77 226 2.0 9.0 0.00 0.00 0.00 73 1008.8
20260505012341 77 134 3.0 8.0 0.00 0.00 0.00 72 1008.7
20260505011332 77 165 3.0 8.0 0.00 0.00 0.00 71 1008.7
20260505010339 78 174 4.0 9.0 0.00 0.00 0.00 70 1008.7
20260505005332 79 252 6.0 15.0 0.00 0.00 0.00 69 1008.6
20260505004323 79 216 4.0 12.0 0.00 0.00 0.00 68 1008.6
20260505003333 80 119 3.0 8.0 0.00 0.00 0.00 68 1008.6
20260505002344 80 148 5.0 12.0 0.00 0.00 0.00 67 1008.6
20260505001334 80 161 6.0 14.0 0.00 0.00 0.00 67 1008.6
20260505000345 81 158 6.0 16.0 0.00 0.00 0.00 66 1008.5
20260504235327 82 126 8.0 13.0 0.00 0.00 0.00 65 1008.6
20260504234348 82 162 7.0 14.0 0.00 0.00 0.00 65 1008.6
20260504233330 82 148 5.0 12.0 0.00 0.00 0.00 65 1008.7
20260504232350 82 151 6.0 13.0 0.00 0.00 0.00 65 1008.9
20260504231332 83 146 7.0 14.0 0.00 0.00 0.00 63 1008.9
20260504230336 84 177 9.0 18.0 0.00 0.00 0.00 62 1009.0
20260504225327 84 131 7.0 13.0 0.00 0.00 0.00 62 1009.0
20260504224338 84 171 7.0 13.0 0.00 0.00 0.00 61 1009.2
20260504223329 85 193 6.0 12.0 0.00 0.00 0.00 61 1009.4
20260504222340 84 151 5.0 15.0 0.00 0.00 0.00 61 1009.4
20260504221332 84 159 5.0 17.0 0.00 0.00 0.00 63 1009.5
20260504220324 84 120 7.0 15.0 0.00 0.00 0.00 62 1009.4
20260504215333 84 120 6.0 14.0 0.00 0.00 0.00 61 1009.6
20260504214323 84 201 5.0 17.0 0.00 0.00 0.00 62 1009.6
20260504213334 83 150 6.0 14.0 0.00 0.00 0.00 62 1009.6
20260504212325 83 121 6.0 15.0 0.00 0.00 0.00 63 1010.0
20260504211337 84 146 8.0 15.0 0.00 0.00 0.00 62 1010.3
20260504210349 83 103 7.0 13.0 0.00 0.00 0.00 62 1010.5
20260504205339 83 201 9.0 13.0 0.00 0.00 0.00 62 1010.6
20260504204322 82 146 7.0 19.0 0.00 0.00 0.00 64 1010.8
20260504203341 83 160 7.0 14.0 0.00 0.00 0.00 63 1011.0
20260504202322 83 124 4.0 17.0 0.00 0.00 0.00 63 1011.1
20260504201331 83 142 6.0 14.0 0.00 0.00 0.00 62 1011.3
20260504200347 83 159 7.0 16.0 0.00 0.00 0.00 62 1011.5
20260504195326 82 110 7.0 14.0 0.00 0.00 0.00 63 1011.6
20260504194337 82 155 5.0 11.0 0.00 0.00 0.00 63 1011.8
20260504193328 82 125 7.0 16.0 0.00 0.00 0.00 64 1012.0
20260504192339 81 122 4.0 14.0 0.00 0.00 0.00 64 1012.2
20260504191330 82 153 6.0 14.0 0.00 0.00 0.00 62 1012.4
20260504190323 81 184 5.0 14.0 0.00 0.00 0.00 66 1012.6
20260504185333 80 191 7.0 16.0 0.00 0.00 0.00 65 1012.6
20260504184325 80 179 6.0 12.0 0.00 0.00 0.00 66 1012.7
20260504183331 79 233 7.0 16.0 0.00 0.00 0.00 66 1012.8
20260504182322 79 230 7.0 15.0 0.00 0.00 0.00 66 1012.9
20260504181334 79 208 7.0 14.0 0.00 0.00 0.00 66 1013.2
20260504180325 79 191 8.0 14.0 0.00 0.00 0.00 67 1013.2
20260504175337 77 159 4.0 14.0 0.00 0.00 0.00 69 1013.5
20260504174329 77 186 7.0 15.0 0.00 0.00 0.00 68 1013.8
20260504173338 76 156 5.0 12.0 0.00 0.00 0.00 71 1013.8
20260504172350 76 221 5.0 15.0 0.00 0.00 0.00 71 1014.1
20260504171342 75 191 5.0 12.0 0.00 0.00 0.00 72 1014.4
20260504170324 75 161 6.0 12.0 0.00 0.00 0.00 71 1014.7
20260504160322 76 134 6.0 14.0 0.00 0.00 0.00 69 1014.7
20260504150329 73 171 7.0 16.0 0.00 0.00 0.00 73 1015.0
20260504140350 69 82 5.0 14.0 0.00 0.00 0.00 76 1015.0
20260504130326 65 160 3.0 8.0 0.00 0.00 0.00 81 1015.0